This is the latest recevied weather packets stored in our database for station/object JA7ZQY-10. If no packets are shown the sender has not sent any weather packets the latest 10 day(s).
| Time | Temp. | Humidity | Pressure | Rain* | Wind** | Luminosity | Snow |
|---|---|---|---|---|---|---|---|
| 1777689891 | 15° C | 64% | 1001.6 hPa | 0 mm | - | - | - |
| 1777689290 | 15° C | 62% | 1001.3 hPa | 0 mm | - | - | - |
| 1777688690 | 15° C | 62% | 1000.9 hPa | 0 mm | - | - | - |
| 1777688090 | 15° C | 61% | 1000.5 hPa | 0 mm | - | - | - |
| 1777687490 | 15° C | 62% | 1000.2 hPa | 0 mm | - | - | - |
| 1777686891 | 14.44° C | 62% | 1000.1 hPa | 0 mm | - | - | - |
| 1777686292 | 15° C | 64% | 999.8 hPa | 0 mm | - | - | - |
| 1777685690 | 14.44° C | 64% | 999.8 hPa | 0 mm | - | - | - |
| 1777685090 | 14.44° C | 65% | 1000.1 hPa | 0 mm | - | - | - |
| 1777684490 | 14.44° C | 67% | 999.8 hPa | 0 mm | - | - | - |
| 1777683890 | 14.44° C | 69% | 999.8 hPa | 0 mm | - | - | - |
| 1777683291 | 14.44° C | 71% | 999.3 hPa | 0 mm | - | - | - |
| 1777682691 | 14.44° C | 74% | 998.9 hPa | 0 mm | - | - | - |
| 1777682092 | 13.33° C | 75% | 998.9 hPa | 0 mm | - | - | - |
| 1777681490 | 13.89° C | 73% | 998.7 hPa | 0 mm | - | - | - |
| 1777680890 | 14.44° C | 73% | 998.6 hPa | 0 mm | - | - | - |
| 1777680291 | 14.44° C | 72% | 998.5 hPa | 0 mm | - | - | - |
| 1777679691 | 13.89° C | 74% | 998.4 hPa | 0 mm | - | - | - |
| 1777679091 | 13.89° C | 78% | 998.1 hPa | 0 mm | - | - | - |
| 1777678490 | 13.33° C | 79% | 998 hPa | 0 mm | - | - | - |
| 1777677890 | 13.33° C | 80% | 997.8 hPa | 0 mm | - | - | - |
| 1777677289 | 13.33° C | 80% | 997.7 hPa | 0 mm | - | - | - |
| 1777676690 | 13.33° C | 80% | 997.3 hPa | 0 mm | - | - | - |
| 1777676089 | 13.33° C | 79% | 997 hPa | 0 mm | - | - | - |
| 1777675489 | 13.89° C | 76% | 996.8 hPa | 0 mm | - | - | - |
* Rain latest hour (hover to see other rain measurements)
** Current wind speed in m/s (hover to see current wind gust speed)